Regional Weather Roundup
Issued by NWS Upton, NY

Current Version | Previous Version | Graphics & Text | Print | Product List | Glossary Off
Versions: 1 2 3 4 5 6 7 8 9 10 11 12 13 14 15 16 17 18 19 20 21 22 23 24 25 26 27 28 29 30

000
ASUS41 KOKX 170409
RWROKX

REGIONAL WEATHER ROUNDUP
NATIONAL WEATHER SERVICE NEW YORK NY
1100 PM EST SAT DEC 16 2017

NOTE: "FAIR" INDICATES FEW OR NO CLOUDS BELOW 12,000 FEET WITH NO
SIGNIFICANT WEATHER AND/OR OBSTRUCTIONS TO VISIBILITY.

NYZ071-072-176-178-NJZ106-104-170500-
NEW YORK CITY METRO AREA

CITY           SKY/WX    TMP DP  RH WIND       PRES   REMARKS
Central Park   CLOUDY    35  22  58 VRB7      30.21R WCI  29
Bronx Bot Gard   N/A     34  21  60 NW3       30.22R
Bronx Lehman C   N/A     34  21  60 NW6         N/A  WCI  29
LaGuardia APRT CLOUDY    36  23  59 N10       30.20R WCI  28
Queens College   N/A     34  23  64 N6          N/A  WCI  29
Kennedy INTL   CLOUDY    35  24  64 N13       30.20R WCI  26
Breezy Point     N/A     36 N/A N/A N13         N/A  WCI  27
Brooklyn Coll    N/A     37  25  60 NW7         N/A  WCI  32
Staten Island    N/A     36  25  64 NW6         N/A  WCI  31
Newark/Liberty CLOUDY    36  24  62 NW10      30.20R WCI  28
Teterboro      CLOUDY    35  22  58 N8        30.20R WCI  29
$$

NYZ177-179-078>081-170500-
LONG ISLAND NEW YORK

CITY           SKY/WX    TMP DP  RH WIND       PRES   REMARKS
Jones Beach      N/A     36 N/A N/A N10         N/A  WCI  28
Wantagh          N/A     36  23  60 NW8         N/A  WCI  29
Matinecock PT    N/A     36 N/A N/A NW14        N/A  WCI  27
Farmingdale    CLOUDY    35  22  58 NW8       30.20R WCI  29
MacArthur/ISP  CLOUDY    35  24  64 NW8       30.19R WCI  29
Shirley        CLOUDY    34  25  69 VRB6      30.20R WCI  29
Mt Sinai Harb    N/A    N/A N/A N/A N10         N/A
Westhampton    CLOUDY    32  21  64 N10       30.21R WCI  24
East Hampton   MOCLDY    30  18  59 N13G18    30.19R WCI  20
Southold         N/A     32  21  64 N12         N/A  WCI  23
Montauk          N/A     33  19  56 NW14G22   30.20R WCI  23
$$

NYZ052-065-067-170500-
HUDSON VALLEY

CITY           SKY/WX    TMP DP  RH WIND       PRES   REMARKS
White Plains   CLOUDY    32  21  64 NW7       30.17R WCI  26
Larchmont Harb   N/A     34 N/A N/A W8          N/A  WCI  27
Croton On Huds   N/A     34 N/A N/A NW6         N/A  WCI  29
Somers           N/A     30  19  64 N2          N/A
Brewster         N/A     25  16  68 N2          N/A
Newburgh       CLOUDY    28  21  74 CALM      30.19R
Montgomery     CLOUDY    30  18  60 W6        30.17S WCI  24
Otisville        N/A     28  21  74 NW2         N/A
Warwick          N/A     30  21  69 NW5         N/A  WCI  25
Suffern          N/A     32  21  64 NW3         N/A
Poughkeepsie   MOCLDY    26  15  63 CALM      30.20R
Albany         PTCLDY    15  12  88 N3        30.20S
$$

NJZ001-105-106-008-010-013-015-019>022-104-170500-
NEW JERSEY

CITY           SKY/WX    TMP DP  RH WIND       PRES   REMARKS
Newark/Liberty CLOUDY    36  24  62 NW10      30.20R WCI  28
Teterboro      CLOUDY    35  22  58 N8        30.20R WCI  29
Caldwell       CLOUDY    34  21  59 VRB3      30.20R
Somerville     CLOUDY    31  27  85 CALM      30.18R
Linden         CLOUDY    35  24  63 CALM      30.20S
Perth Amboy      N/A     36 N/A N/A N5          N/A  WCI  32
Sussex         CLOUDY    31  21  66 CALM      30.17S
Andover        NOT AVBL
Trenton        CLOUDY    36  27  69 NE5       30.17R WCI  32
Millville      CLOUDY    28  26  92 CALM      30.20R
Atlantic City  CLOUDY    37  29  72 NW6       30.21R WCI  32
Wrightstown    CLOUDY    35  27  72 S3        30.16R
Toms River     NOT AVBL
Belmar         CLOUDY    36  26  67 NW3       30.20R
$$

PAZ047>061-062-071-170500-
EASTERN PENNSYLVANIA

CITY           SKY/WX    TMP DP  RH WIND       PRES   REMARKS
Philadelphia   CLOUDY    38  27  64 S7        30.20R WCI  33
Allentown      CLOUDY    35  25  66 E7        30.17R WCI  29
Scranton       CLOUDY    28  21  75 N6        30.15S WCI  22
$$

CTZ002-004>006-009-010-012-RIZ004-006-007-MAZ004-011-015-170500-
SOUTHERN NEW ENGLAND
 IN CT

CITY           SKY/WX    TMP DP  RH WIND       PRES   REMARKS
Bradley INTL   PTCLDY    22  12  65 CALM      30.19R
Hartford       CLEAR     27  12  53 N7        30.21R WCI  19
Danbury        CLEAR     27  16  63 N5        30.19R WCI  22
Wtrbury/Oxford CLEAR     21  13  71 N6        30.17R WCI  13
Norwalk Harbor   N/A     32 N/A N/A N6          N/A  WCI  26
Bridgeport     CLOUDY    31  18  58 N9        30.21R WCI  23
Meriden        CLEAR     26  12  55 NW5       30.20R WCI  20
New Haven      CLEAR     29  16  58 N6        30.20R WCI  23
Chester        FAIR      27  12  54 NW8       30.17R WCI  18
Groton         CLEAR     29  12  49 N12G20    30.19R WCI  19
Wilimantic     PTCLDY    26  13  57 VRB7      30.19R WCI  18

 IN RI

CITY           SKY/WX    TMP DP  RH WIND       PRES   REMARKS
Providence     CLEAR     26  15  63 W8        30.18R WCI  18
Block Island   CLEAR     29  18  63 N14G20    30.18R WCI  18
Westerly       CLEAR     28  17  63 N6        30.19R WCI  22
 IN MA

CITY           SKY/WX    TMP DP  RH WIND       PRES   REMARKS
Boston         CLEAR     26  12  55 NW10      30.16R WCI  16
Worcester      CLEAR     20   5  52 W14       30.09R WCI   7
Westfield      PTCLDY    22  13  68 CALM      30.17R
Provincetown   PTCLDY    30  15  53 NW20G26   30.14R WCI  17
Nantucket      CLEAR     30  17  58 NW20G26   30.14R WCI  17
$$

ANZ330-335-338-340-345-350-353-355-170500-
COASTAL MARINE OBSERVATIONS


STATION/POSITION TIME  SKY/WX   TEMP    WIND        PRES    VSBY  WAVE
                                AIR SEA DIR/SP/G                  HT/PER
                 (UTC)          (F)     (DEG/KT/KT) (MB)    (MI)  (FT/S)
NY HARB ENTRANCE 0250            42 50  310/ 16/ 19 1021.0          3/ 4
20 S FIRE ISLAND 0250            44 51  300/ 19/ 23 1020.8          6/ 6
GREAT SOUTH BAY  NOT AVBL
HUDSON CANYON    0250            48 55  280/ 25/ 29 1020.1          7/ 7
KINGS POINT      0348            35 41   10/ 12/ 14 1023.6
EXECUTION ROCKS  0330            36     330/ 10/ 14   N/A
WESTERN LI SOUND NOT AVBL
CENTRAL LI SOUND 0315            33     350/ 16/ 19   N/A           3
ROBBINS REEF     0348            36     340/  9/ 12 1022.9
$$


>>>>>>>>>>>>>>>>>>>>>>>>>>>> KEY <<<<<<<<<<<<<<<<<<<<<<<<<<<
>                                                          <
>     SKY/WX - Sky Condition/Present Weather               <
>     TMP    - Temperature in Fahrenheit                   <
>     DP     - Dew Point in Fahrenheit                     <
>     RH     - Relative Humidity in Percent                <
>     WIND   - Direction (from) and Speed in MPH           <
>     PRES   - Mean Sea Level Pressure (inches of Hg)      <
>     WCI    - Wind Chill Index                            <
>     VSB    - VISIBILITY IN MILES                         <
>     HX     - HEAT INDEX                                  <
>     TC     - TEMPERATURE IN CELSIUS                      <
>     VRB    - VARIABLE WIND DIRECTION                     <
>                                                          <
>>>>>>>>>>>>>>>>>>>>>>>>>>>> KEY <<<<<<<<<<<<<<<<<<<<<<<<<<<




USA.gov is the U.S. government's official web portal to all federal, state and local government web resources and services.